Temperature
-2 -1 -1 -0 1 2 3 4 5 6 7 8 8 9 10 10 10 11 11 12 12 13 13 12 12 12 12 12 12 12 11 12 11 11 11 11 11 11
-1 -1 -0 0 1 2 3 3 4 5 6 7 8 8 10 10 10 10 10 11 11 12 12 12 12 12 12 12 11 11 11 10 10 10 10 10 10 10
-2 -1 -0 0 1 2 2 3 4 4 5 6 6 7 9 9 9 9 9 9 10 10 10 11 11 11 11 11 10 10 9 9 9 9 9 9 9 9
-3 -2 -1 -1 0 1 2 2 3 3 4 5 5 7 8 9 9 8 8 8 8 8 9 9 9 9 9 9 8 8 8 8 8 8 8 8 8 8
-5 -4 -3 -2 -1 -0 1 2 2 3 3 4 5 6 7 8 8 8 8 7 7 7 7 7 7 7 7 7 6 6 7 7 7 7 7 7 8 8
-6 -5 -4 -3 -2 -1 -0 1 2 2 3 3 4 5 7 7 7 7 7 6 6 6 6 6 6 6 6 6 6 6 6 6 6 6 6 7 7 7
-7 -6 -5 -4 -3 -2 -1 -0 1 2 2 3 4 4 5 6 6 6 6 6 6 6 5 5 5 5 5 5 6 6 6 6 6 6 6 6 6 6
-8 -7 -6 -5 -4 -3 -2 -1 -0 1 1 2 3 3 4 5 5 5 5 5 5 5 4 4 4 4 5 5 5 5 5 5 5 5 5 5 5 5
-8 -8 -7 -7 -5 -4 -3 -2 -1 -1 -0 0 1 2 3 4 4 5 5 5 4 4 4 4 4 4 4 4 4 4 5 5 5 5 5 4 4 4
-8 -8 -8 -8 -7 -6 -5 -4 -3 -3 -2 -1 -1 -0 1 2 3 4 4 4 4 4 4 3 3 3 3 3 3 3 4 4 4 4 4 4 4 4
-9 -8 -8 -8 -8 -7 -6 -6 -5 -5 -4 -3 -2 -2 -1 0 2 2 3 3 3 3 3 3 2 2 2 2 2 2 3 3 3 3 3 3 3 3
-9 -9 -9 -9 -9 -8 -8 -8 -7 -7 -6 -5 -4 -3 -2 -1 -0 1 1 2 3 2 2 2 1 1 1 1 1 1 2 2 2 2 3 3 2 2
-9 -10 -10 -10 -9 -9 -9 -9 -9 -9 -8 -7 -6 -5 -4 -3 -2 -1 -1 1 1 1 0 1 1 1 1 -0 -0 0 1 1 1 1 1 1 2 2
-10 -10 -10 -10 -10 -10 -10 -10 -10 -9 -9 -9 -8 -7 -7 -6 -5 -4 -3 -2 -1 -1 -1 -0 0 0 0 -0 -1 -1 -0 -0 0 0 0 1 1 1
-11 -11 -11 -11 -11 -11 -11 -11 -10 -10 -10 -10 -10 -9 -9 -9 -8 -7 -6 -5 -4 -3 -3 -2 -1 -1 -0 -0 -0 -1 -1 -1 -1 -1 -0 -0 0 0
-12 -13 -13 -12 -12 -12 -12 -12 -12 -12 -11 -11 -11 -11 -10 -10 -9 -9 -8 -8 -7 -6 -5 -4 -4 -4 -3 -3 -2 -3 -3 -3 -3 -2 -2 -1 -1 -1
-13 -13 -13 -13 -13 -13 -13 -13 -13 -13 -12 -12 -12 -12 -11 -10 -10 -9 -9 -9 -9 -8 -8 -7 -7 -6 -6 -6 -6 -6 -6 -5 -4 -3 -3 -2 -2 -2
-14 -14 -14 -14 -15 -15 -15 -15 -14 -14 -14 -14 -13 -13 -12 -11 -11 -11 -10 -10 -9 -9 -9 -8 -8 -8 -7 -7 -7 -8 -7 -7 -5 -4 -4 -4 -4 -4
-14 -15 -15 -15 -15 -15 -15 -15 -15 -15 -15 -15 -14 -14 -14 -13 -12 -12 -11 -11 -11 -10 -10 -9 -9 -9 -9 -9 -8 -8 -8 -8 -7 -7 -6 -5 -5 -5
-15 -15 -15 -15 -15 -15 -16 -16 -16 -16 -16 -16 -15 -15 -15 -14 -14 -14 -13 -13 -12 -12 -11 -10 -10 -10 -10 -10 -11 -10 -9 -9 -9 -8 -8 -7 -6 -5
-15 -15 -15 -15 -15 -15 -16 -16 -16 -16 -16 -16 -16 -15 -15 -15 -15 -15 -15 -14 -14 -14 -13 -13 -11 -11 -11 -10 -11 -11 -11 -10 -9 -9 -8 -8 -7 -6
-15 -15 -15 -15 -15 -15 -15 -16 -16 -16 -16 -16 -16 -16 -16 -15 -15 -15 -15 -15 -15 -15 -14 -14 -13 -12 -12 -12 -12 -12 -11 -11 -11 -10 -9 -9 -9 -8
-15 -15 -15 -15 -15 -15 -15 -16 -16 -16 -16 -16 -16 -16 -16 -15 -15 -15 -15 -15 -15 -15 -15 -15 -14 -14 -13 -13 -13 -12 -12 -12 -11 -11 -10 -10 -10 -9
Wind_Speed
15 16 15 14 14 14 14 14 14 14 15 15 11 11 10 9 10 12 13 14 18 19 21 23 23 23 24 26 26 25 25 24 22 21 20 18 16 15
12 12 12 12 12 12 13 13 13 13 13 10 10 9 10 8 10 11 10 13 14 15 16 18 21 24 27 28 28 27 26 25 23 22 21 19 17 15
14 11 9 9 8 9 11 12 12 12 14 10 7 7 10 10 9 8 10 10 12 17 19 21 23 25 27 28 27 26 26 25 24 23 21 20 18 16
16 14 13 11 11 8 9 11 12 12 13 13 9 8 10 12 11 11 9 8 10 17 21 22 23 24 24 25 25 24 24 24 23 23 21 19 18 16
15 15 14 14 13 9 9 9 10 10 11 11 10 8 6 9 12 11 12 10 10 15 19 21 22 23 24 25 25 24 24 23 22 22 20 19 17 15
14 14 14 15 14 11 7 7 6 9 10 10 9 9 8 9 12 13 12 10 10 11 12 15 19 21 22 24 25 25 25 24 22 21 19 18 16 14
14 14 14 18 21 16 10 6 4 2 3 6 8 8 8 11 12 11 14 12 10 10 12 11 13 12 14 18 21 23 23 23 21 20 19 18 17 15
13 14 14 16 19 22 24 23 19 9 5 2 3 7 7 7 7 11 14 14 8 6 11 10 11 11 10 13 18 21 22 22 22 21 20 19 17 14
13 13 12 14 17 14 19 24 25 28 22 11 10 7 6 6 4 10 11 12 8 5 10 7 7 9 7 11 21 22 22 23 22 22 21 19 16 14
12 13 13 15 15 15 14 16 17 20 21 16 14 14 13 10 8 5 8 10 8 6 4 5 5 7 10 13 18 21 22 22 21 20 18 17 15 13
11 13 14 15 21 20 15 15 16 15 20 26 27 26 29 28 18 7 5 8 5 4 5 4 5 5 6 8 13 18 19 19 19 18 17 15 12 10
9 12 18 20 22 22 16 15 15 14 14 17 20 22 21 23 25 16 8 5 5 3 4 3 5 5 5 4 6 9 14 16 16 15 14 11 7 5
7 9 13 22 23 23 20 15 16 13 13 14 14 15 15 15 16 15 14 10 7 5 4 3 3 4 5 4 3 4 6 7 8 10 10 10 7 4
6 8 13 21 23 23 19 19 20 15 11 11 12 13 12 12 12 14 16 17 15 11 11 7 3 4 5 5 5 4 4 5 5 5 5 6 6 5
10 16 18 19 18 17 21 22 18 12 11 12 12 11 10 10 10 10 12 14 16 18 18 16 9 6 5 6 6 7 5 4 4 3 3 2 1 1
11 13 17 18 16 16 16 14 12 12 11 11 10 10 9 9 10 8 7 7 9 10 13 15 13 9 8 8 7 7 6 5 4 3 1 0 1 2
8 8 10 10 10 10 10 11 11 11 11 11 10 10 10 10 10 9 8 8 8 8 8 8 9 10 8 6 6 6 5 5 4 2 1 2 3 3
10 9 9 9 9 9 9 9 9 10 9 9 9 9 9 9 9 8 8 8 8 7 7 6 4 4 4 7 9 4 4 4 2 1 2 3 4 3
10 9 8 8 8 7 7 7 7 7 7 7 8 8 7 7 7 7 7 7 7 6 6 6 6 2 3 4 4 7 3 2 1 1 2 4 5 5
8 7 7 7 6 6 6 6 5 5 5 6 6 6 6 6 6 6 6 6 5 5 5 5 6 7 5 3 1 1 2 2 2 3 3 5 6 9
6 6 6 6 5 5 5 5 5 4 4 4 4 4 4 4 4 4 4 5 4 4 4 4 4 5 3 2 2 1 0 2 4 5 5 5 5 5
5 5 5 5 5 5 4 4 4 4 3 3 3 3 3 3 3 3 3 3 2 3 3 3 2 2 2 2 3 3 4 4 6 10 12 10 6 4
5 5 5 5 5 4 4 4 4 4 3 3 3 3 2 3 2 2 3 3 3 3 3 3 3 2 3 3 4 5 6 7 6 6 6 9 14 18
Wind_Direction
284 268 260 257 254 254 251 248 249 247 242 238 225 213 208 212 207 212 219 204 207 212 214 212 206 196 182 169 165 157 144 143 143 141 138 136 133 128
302 281 267 260 256 252 248 244 241 245 249 241 229 216 198 200 198 206 197 161 165 168 172 171 165 156 148 144 143 141 142 143 142 141 139 135 130 125
330 324 317 302 282 265 254 245 239 236 242 243 231 214 198 190 184 185 160 149 141 133 131 129 129 130 132 135 138 141 143 143 143 142 140 136 132 127
342 346 348 339 320 298 273 253 242 232 233 230 210 203 200 187 176 166 149 138 135 132 127 125 124 125 128 130 134 139 140 141 142 141 140 137 133 128
347 350 349 347 340 321 297 268 248 235 228 224 204 191 185 173 165 153 141 133 131 134 131 133 135 138 140 141 142 142 141 140 140 138 137 134 129 124
350 352 351 352 346 336 319 299 265 235 221 213 196 180 169 167 163 151 142 138 139 142 136 138 139 142 147 148 148 147 145 143 139 136 133 130 126 122
353 354 355 1 1 7 11 358 328 270 221 196 184 171 165 167 169 160 146 137 134 146 146 147 147 146 144 144 146 147 144 141 139 138 136 130 125 120
354 357 1 5 7 12 24 33 37 34 17 38 133 136 134 141 149 153 145 146 140 142 137 135 148 148 152 157 153 148 144 141 139 137 134 129 123 118
359 3 9 11 16 14 23 30 34 39 41 47 55 52 58 40 108 153 163 154 126 122 131 111 114 117 114 124 138 140 137 135 134 132 130 125 120 115
5 10 20 23 26 27 29 35 37 38 40 45 52 50 49 40 35 63 107 101 88 45 75 114 97 83 78 88 108 120 124 124 124 123 120 117 115 111
11 22 32 35 34 35 34 37 37 33 36 44 48 47 45 46 41 52 99 127 111 55 30 94 112 89 66 57 75 100 110 114 116 116 115 115 117 120
14 30 43 44 40 40 38 38 39 34 35 38 40 40 42 41 41 37 32 84 101 87 31 80 119 117 91 53 44 68 91 99 102 104 107 107 115 131
20 36 46 49 45 42 42 41 41 41 43 45 45 43 44 43 42 42 42 49 68 70 35 71 106 104 114 118 79 62 83 98 101 101 96 91 80 71
29 43 50 52 49 46 43 38 39 40 43 47 48 44 42 44 47 51 52 54 54 52 37 46 84 118 126 126 131 129 114 119 125 124 118 111 98 81
55 64 57 52 48 44 40 39 37 36 40 45 46 44 42 43 47 55 60 60 56 50 42 40 49 69 87 123 134 148 147 145 141 133 125 108 76 26
42 46 50 52 49 43 40 39 38 38 39 41 42 41 41 44 43 39 48 54 60 56 48 46 44 57 80 96 115 133 142 143 143 115 87 288 267 265
47 45 41 40 39 38 38 38 37 36 38 35 36 38 39 40 40 37 45 60 63 60 51 48 56 62 59 76 115 124 132 126 112 71 338 293 271 260
46 45 41 38 36 33 32 33 34 34 33 34 35 36 36 36 39 41 46 54 60 54 45 37 62 98 89 58 31 104 116 116 100 0 307 290 281 260
46 43 39 34 30 28 27 28 29 29 26 31 33 30 30 33 36 38 41 50 55 54 45 35 31 40 138 126 66 32 76 84 328 281 287 288 290 295
36 34 31 27 23 20 17 17 16 17 20 21 26 26 23 25 31 33 36 35 41 47 53 48 41 32 36 50 64 100 25 339 321 308 310 305 292 283
18 17 15 12 9 6 3 2 2 5 10 5 13 16 14 16 22 23 27 28 24 32 37 42 35 6 352 328 280 265 317 306 303 300 310 304 300 287
354 356 357 354 350 346 342 339 338 343 349 345 351 352 350 352 356 354 356 355 355 358 347 344 341 326 321 315 308 306 301 304 281 270 262 257 274 291
333 336 338 339 334 329 322 317 312 315 319 317 311 304 297 293 297 298 295 290 295 301 303 306 302 289 287 284 284 285 285 288 289 288 275 258 256 263
Height
1406 1403 1401 1401 1402 1404 1406 1408 1410 1409 1409 1412 1413 1414 1417 1420 1423 1426 1429 1433 1437 1442 1447 1453 1459 1465 1471 1476 1482 1486 1491 1497 1502 1507 1511 1515 1518 1520
1399 1396 1395 1394 1395 1396 1397 1399 1401 1403 1403 1405 1407 1409 1411 1414 1417 1421 1423 1426 1430 1435 1440 1446 1451 1457 1464 1469 1475 1480 1486 1491 1497 1502 1506 1510 1513 1516
1394 1391 1389 1389 1388 1389 1390 1391 1393 1395 1396 1399 1401 1403 1406 1409 1412 1416 1419 1422 1426 1430 1435 1440 1445 1451 1458 1463 1470 1476 1481 1487 1492 1498 1502 1506 1509 1511
1391 1387 1385 1383 1382 1381 1382 1383 1385 1387 1390 1392 1394 1398 1401 1404 1408 1412 1415 1419 1423 1428 1432 1437 1443 1448 1453 1459 1465 1471 1478 1484 1490 1494 1498 1502 1505 1508
1390 1386 1382 1379 1377 1375 1375 1376 1377 1379 1381 1385 1388 1391 1394 1398 1403 1407 1412 1416 1421 1426 1431 1436 1442 1447 1452 1457 1463 1470 1475 1481 1487 1491 1495 1499 1501 1504
1390 1385 1381 1378 1375 1372 1370 1370 1370 1372 1373 1377 1380 1384 1387 1392 1397 1402 1408 1414 1420 1425 1431 1436 1442 1448 1454 1458 1463 1469 1474 1479 1484 1488 1492 1496 1498 1501
1390 1386 1381 1378 1374 1371 1368 1366 1365 1365 1366 1369 1373 1377 1380 1386 1391 1397 1403 1410 1418 1424 1429 1435 1441 1447 1453 1458 1464 1469 1473 1478 1482 1486 1490 1493 1496 1498
1392 1387 1382 1378 1374 1371 1368 1365 1362 1361 1362 1364 1366 1371 1375 1380 1386 1393 1399 1406 1415 1422 1427 1434 1441 1446 1451 1457 1462 1467 1472 1476 1480 1484 1488 1491 1494 1496
1394 1390 1385 1380 1376 1373 1369 1366 1363 1361 1361 1362 1363 1367 1370 1376 1383 1391 1397 1404 1410 1418 1425 1431 1438 1444 1450 1455 1461 1465 1470 1474 1478 1481 1485 1488 1491 1493
1397 1393 1389 1384 1381 1377 1374 1370 1367 1364 1363 1363 1364 1366 1369 1375 1382 1388 1394 1401 1408 1415 1422 1429 1435 1441 1447 1453 1459 1463 1467 1471 1475 1478 1482 1485 1488 1490
1399 1396 1393 1389 1386 1382 1379 1376 1372 1370 1368 1368 1368 1369 1372 1377 1383 1390 1396 1401 1406 1413 1419 1425 1431 1438 1444 1449 1454 1459 1464 1468 1471 1475 1478 1482 1484 1486
1402 1400 1397 1394 1391 1387 1384 1381 1378 1376 1375 1374 1373 1374 1376 1380 1385 1390 1395 1400 1404 1411 1416 1422 1427 1433 1440 1445 1450 1454 1459 1463 1467 1471 1474 1478 1480 1482
1406 1404 1401 1398 1395 1392 1389 1386 1385 1383 1382 1381 1380 1380 1382 1385 1388 1391 1395 1399 1404 1408 1414 1419 1424 1429 1435 1440 1446 1451 1455 1459 1463 1467 1470 1473 1476 1478
1409 1407 1405 1402 1400 1397 1395 1393 1391 1389 1388 1387 1387 1387 1388 1390 1392 1394 1396 1399 1403 1407 1412 1417 1422 1427 1432 1436 1442 1447 1451 1455 1459 1462 1465 1468 1470 1472
1411 1410 1408 1406 1404 1402 1400 1398 1396 1395 1394 1393 1393 1394 1395 1396 1397 1399 1401 1403 1405 1408 1411 1416 1420 1425 1430 1433 1437 1442 1447 1451 1455 1458 1460 1463 1465 1466
1414 1413 1412 1410 1408 1407 1405 1403 1402 1401 1400 1399 1399 1400 1400 1401 1402 1403 1405 1407 1409 1411 1414 1417 1420 1424 1428 1431 1435 1438 1443 1446 1449 1452 1455 1457 1459 1460
1420 1418 1417 1415 1413 1412 1410 1409 1407 1406 1405 1405 1405 1405 1405 1406 1406 1408 1409 1411 1413 1415 1417 1419 1422 1424 1427 1430 1434 1437 1440 1443 1445 1448 1451 1453 1454 1455
1423 1422 1420 1419 1418 1416 1415 1414 1412 1411 1410 1410 1409 1409 1410 1410 1410 1411 1412 1414 1415 1418 1420 1422 1424 1426 1429 1431 1434 1436 1438 1440 1442 1444 1446 1448 1449 1450
1427 1426 1424 1423 1421 1420 1419 1418 1416 1415 1414 1413 1413 1413 1413 1413 1413 1414 1415 1416 1418 1419 1421 1423 1425 1427 1430 1432 1433 1435 1436 1437 1439 1440 1441 1443 1443 1444
1432 1430 1428 1426 1425 1423 1421 1420 1419 1418 1417 1416 1415 1415 1415 1415 1415 1416 1417 1418 1419 1421 1422 1423 1425 1426 1429 1431 1432 1432 1433 1435 1436 1437 1437 1438 1438 1439
1435 1433 1431 1429 1427 1425 1423 1422 1421 1420 1418 1417 1417 1416 1416 1416 1417 1418 1419 1419 1421 1422 1423 1424 1424 1426 1427 1428 1430 1430 1431 1432 1432 1433 1434 1434 1435 1435
1437 1435 1433 1431 1429 1426 1425 1423 1422 1421 1420 1419 1418 1418 1418 1418 1418 1419 1419 1421 1422 1422 1423 1424 1424 1425 1425 1426 1427 1428 1429 1429 1430 1430 1431 1431 1431 1431
1437 1435 1434 1431 1429 1427 1425 1423 1422 1421 1421 1420 1419 1419 1419 1419 1419 1419 1420 1421 1422 1422 1423 1423 1424 1424 1424 1424 1424 1425 1426 1427 1427 1428 1428 1428 1427 1427